time, Switch, Flow(0), Analog(2)
yyyy/mm/dd HH:MM:SS.fff, True=FILTERED|False=TOTAL, L/min, V
2023/06/26 07:00:01.819, True, 4.641, 0.124590
2023/06/26 07:00:02.323, True, 4.642, 0.123674
2023/06/26 07:00:02.819, True, 4.380, 0.126802
2023/06/26 07:00:03.323, True, 4.311, 0.125582
2023/06/26 07:00:03.827, True, 3.979, 0.126268
2023/06/26 07:00:04.323, True, 2.696, 0.124666
2023/06/26 07:00:04.827, True, 2.321, 0.124590
2023/06/26 07:00:05.330, True, 1.990, 0.126421
2023/06/26 07:00:05.827, True, 2.022, 0.126268
2023/06/26 07:00:06.331, True, 1.658, 0.126726
2023/06/26 07:00:06.835, True, 1.989, 0.125963
2023/06/26 07:00:07.331, True, 2.025, 0.125887
2023/06/26 07:00:07.835, True, 1.655, 0.125429
2023/06/26 07:00:08.339, True, 1.990, 0.128252
2023/06/26 07:00:08.835, True, 2.023, 0.124361
2023/06/26 07:00:09.339, True, 1.657, 0.124666
2023/06/26 07:00:09.843, True, 1.990, 0.127337
2023/06/26 07:00:10.339, True, 1.685, 0.124895
2023/06/26 07:00:10.843, True, 1.989, 0.125963
2023/06/26 07:00:11.346, True, 1.989, 0.123751
2023/06/26 07:00:11.851, True, 1.992, 0.125887
2023/06/26 07:00:12.347, True, 2.019, 0.126879
2023/06/26 07:00:12.851, True, 1.990, 0.124514
2023/06/26 07:00:13.354, True, 1.990, 0.127489
2023/06/26 07:00:13.850, True, 2.022, 0.127718
2023/06/26 07:00:14.355, True, 1.992, 0.126497
2023/06/26 07:00:14.859, True, 1.987, 0.125811
2023/06/26 07:00:15.354, True, 2.022, 0.124437
2023/06/26 07:00:15.858, True, 1.992, 0.126726
2023/06/26 07:00:16.363, True, 1.990, 0.127565
2023/06/26 07:00:16.859, True, 2.019, 0.126040
2023/06/26 07:00:17.363, True, 1.993, 0.126421
2023/06/26 07:00:17.867, True, 1.989, 0.128939
2023/06/26 07:00:18.363, True, 2.020, 0.125124
2023/06/26 07:00:18.867, True, 1.989, 0.125277
2023/06/26 07:00:19.371, True, 1.993, 0.124056
2023/06/26 07:00:19.875, True, 1.656, 0.126497
2023/06/26 07:00:20.371, True, 2.020, 0.124285
2023/06/26 07:00:20.875, True, 1.990, 0.127642
2023/06/26 07:00:21.379, True, 1.990, 0.124819
2023/06/26 07:00:21.875, True, 1.686, 0.124743
2023/06/26 07:00:22.379, True, 1.988, 0.126268
2023/06/26 07:00:22.883, True, 1.990, 0.126421
2023/06/26 07:00:23.379, True, 2.022, 0.127718
2023/06/26 07:00:23.882, True, 1.990, 0.127337
2023/06/26 07:00:24.387, True, 1.990, 0.128023
2023/06/26 07:00:24.883, True, 2.022, 0.124514
2023/06/26 07:00:25.387, True, 1.991, 0.124514
2023/06/26 07:00:25.883, True, 2.020, 0.126345
2023/06/26 07:00:26.387, True, 1.990, 0.127489
2023/06/26 07:00:26.891, True, 1.990, 0.126497
2023/06/26 07:00:27.387, True, 2.023, 0.126650
2023/06/26 07:00:27.891, True, 1.988, 0.127565
2023/06/26 07:00:28.395, True, 1.989, 0.125048
2023/06/26 07:00:28.891, True, 2.022, 0.125811
2023/06/26 07:00:29.395, True, 1.990, 0.124666
2023/06/26 07:00:29.899, True, 1.991, 0.124971
2023/06/26 07:00:30.395, True, 1.683, 0.125429
2023/06/26 07:00:30.899, True, 1.990, 0.124971
2023/06/26 07:00:31.403, True, 1.990, 0.125582
2023/06/26 07:00:31.899, True, 2.021, 0.125658
2023/06/26 07:00:32.402, True, 2.321, 0.124971
2023/06/26 07:00:32.907, True, 1.990, 0.125658
2023/06/26 07:00:33.403, True, 1.684, 0.127489
2023/06/26 07:00:33.907, True, 2.324, 0.125505
2023/06/26 07:00:34.410, True, 1.991, 0.126650
2023/06/26 07:00:34.906, True, 2.022, 0.126268
2023/06/26 07:00:35.411, True, 1.986, 0.128023
2023/06/26 07:00:35.915, True, 1.990, 0.125048
2023/06/26 07:00:36.419, True, 1.990, 0.127947
2023/06/26 07:00:36.915, True, 2.022, 0.128023
2023/06/26 07:00:37.418, True, 1.990, 0.129320
2023/06/26 07:00:37.923, True, 1.989, 0.125048
2023/06/26 07:00:38.419, True, 2.022, 0.128481
2023/06/26 07:00:38.923, True, 1.990, 0.128099
2023/06/26 07:00:39.427, True, 1.992, 0.128176
2023/06/26 07:00:39.923, True, 2.019, 0.127718
2023/06/26 07:00:40.427, True, 2.325, 0.129397
2023/06/26 07:00:40.931, True, 1.986, 0.128176
2023/06/26 07:00:41.427, True, 1.686, 0.129473
2023/06/26 07:00:41.931, True, 1.989, 0.130694
2023/06/26 07:00:42.435, True, 1.991, 0.129015
2023/06/26 07:00:42.931, True, 2.019, 0.130846
2023/06/26 07:00:43.435, True, 1.991, 0.130159
2023/06/26 07:00:43.939, True, 1.988, 0.130159
2023/06/26 07:00:44.435, True, 2.022, 0.130770
2023/06/26 07:00:44.939, True, 1.990, 0.132677
2023/06/26 07:00:45.435, True, 2.024, 0.133364
2023/06/26 07:00:45.939, True, 1.988, 0.135119
2023/06/26 07:00:46.443, True, 1.990, 0.133135
2023/06/26 07:00:46.939, True, 2.022, 0.134508
2023/06/26 07:00:47.443, True, 1.989, 0.133135
2023/06/26 07:00:47.947, True, 2.322, 0.133974
2023/06/26 07:00:48.443, True, 1.684, 0.133516
2023/06/26 07:00:48.947, True, 1.990, 0.134966
2023/06/26 07:00:49.451, True, 1.992, 0.134585
2023/06/26 07:00:49.947, True, 2.019, 0.133822
2023/06/26 07:00:50.451, True, 1.990, 0.135653
2023/06/26 07:00:50.954, True, 1.989, 0.136873
2023/06/26 07:00:51.451, True, 2.022, 0.135424
2023/06/26 07:00:51.955, True, 1.990, 0.133516
2023/06/26 07:00:52.459, True, 1.990, 0.134890
2023/06/26 07:00:52.955, True, 1.684, 0.134661
2023/06/26 07:00:53.459, True, 1.990, 0.135805
2023/06/26 07:00:53.955, True, 2.022, 0.135195
2023/06/26 07:00:54.458, True, 1.990, 0.134356
2023/06/26 07:00:54.963, True, 1.989, 0.135729
2023/06/26 07:00:55.459, True, 1.687, 0.134051
2023/06/26 07:00:55.963, True, 1.987, 0.138705
2023/06/26 07:00:56.467, True, 1.990, 0.133745
2023/06/26 07:00:56.963, True, 1.685, 0.136339
2023/06/26 07:00:57.467, True, 1.990, 0.137713
2023/06/26 07:00:57.970, True, 1.990, 0.135729
2023/06/26 07:00:58.467, True, 2.022, 0.135119
2023/06/26 07:00:58.971, True, 1.992, 0.134432
2023/06/26 07:00:59.475, True, 1.987, 0.134508
2023/06/26 07:00:59.971, True, 2.022, 0.135348
2023/06/26 07:01:00.475, True, 1.992, 0.134813
2023/06/26 07:01:00.978, True, 1.987, 0.137484
2023/06/26 07:01:01.475, True, 2.022, 0.138170
2023/06/26 07:01:01.979, True, 1.991, 0.137102
2023/06/26 07:01:02.483, True, 1.988, 0.136645
2023/06/26 07:01:02.979, True, 2.022, 0.136416
2023/06/26 07:01:03.483, True, 1.990, 0.134890
2023/06/26 07:01:03.986, True, 1.990, 0.135653
2023/06/26 07:01:04.483, True, 2.022, 0.139239
2023/06/26 07:01:04.987, True, 1.990, 0.137407
2023/06/26 07:01:05.491, True, 1.990, 0.138018
2023/06/26 07:01:05.986, True, 2.022, 0.136950
2023/06/26 07:01:06.491, True, 1.658, 0.136950
2023/06/26 07:01:06.995, True, 1.990, 0.135576
2023/06/26 07:01:07.499, True, 1.990, 0.135119
2023/06/26 07:01:07.995, True, 2.022, 0.137179
2023/06/26 07:01:08.499, True, 1.990, 0.135271
2023/06/26 07:01:09.003, True, 1.990, 0.135653
2023/06/26 07:01:09.499, True, 2.022, 0.136110
2023/06/26 07:01:10.003, True, 1.990, 0.137942
2023/06/26 07:01:10.507, True, 2.321, 0.139086
2023/06/26 07:01:11.003, True, 2.022, 0.135958
2023/06/26 07:01:11.507, True, 1.990, 0.135958
2023/06/26 07:01:12.003, True, 2.022, 0.135576
2023/06/26 07:01:12.507, True, 1.992, 0.138399
2023/06/26 07:01:13.011, True, 1.987, 0.138399
2023/06/26 07:01:13.507, True, 2.022, 0.135958
2023/06/26 07:01:14.011, True, 1.990, 0.135576
2023/06/26 07:01:14.515, True, 1.989, 0.136797
2023/06/26 07:01:15.011, True, 2.022, 0.136187
2023/06/26 07:01:15.515, True, 1.989, 0.138094
2023/06/26 07:01:16.019, True, 1.990, 0.136492
2023/06/26 07:01:16.515, True, 1.685, 0.136110
2023/06/26 07:01:17.019, True, 1.990, 0.136034
2023/06/26 07:01:17.523, True, 1.990, 0.136416
2023/06/26 07:01:18.019, True, 2.022, 0.138247
2023/06/26 07:01:18.523, True, 1.658, 0.137331
2023/06/26 07:01:19.027, True, 1.990, 0.137484
2023/06/26 07:01:19.523, True, 2.022, 0.135576
2023/06/26 07:01:20.027, True, 1.990, 0.136034
2023/06/26 07:01:20.523, True, 2.020, 0.135958
2023/06/26 07:01:21.027, True, 1.658, 0.134127
2023/06/26 07:01:21.531, True, 1.990, 0.137179
2023/06/26 07:01:22.035, True, 1.990, 0.135576
2023/06/26 07:01:22.531, True, 1.685, 0.136339
2023/06/26 07:01:23.035, True, 1.990, 0.134890
2023/06/26 07:01:23.539, True, 1.989, 0.136873
2023/06/26 07:01:24.035, True, 2.022, 0.135271
2023/06/26 07:01:24.539, True, 1.990, 0.135348
2023/06/26 07:01:25.043, True, 1.990, 0.136110
2023/06/26 07:01:25.539, True, 2.022, 0.134127
2023/06/26 07:01:26.043, True, 1.991, 0.137331
2023/06/26 07:01:26.547, True, 1.989, 0.137636
2023/06/26 07:01:27.051, True, 1.990, 0.138781
2023/06/26 07:01:27.547, True, 2.022, 0.136034
2023/06/26 07:01:28.051, True, 1.990, 0.135042
2023/06/26 07:01:28.547, True, 2.022, 0.135348
2023/06/26 07:01:29.051, True, 1.990, 0.135729
2023/06/26 07:01:29.555, True, 1.990, 0.137102
2023/06/26 07:01:30.051, True, 1.685, 0.139239
2023/06/26 07:01:30.555, True, 1.990, 0.138323
2023/06/26 07:01:31.059, True, 1.990, 0.135119
2023/06/26 07:01:31.555, True, 2.022, 0.134813
2023/06/26 07:01:32.059, True, 1.989, 0.137865
2023/06/26 07:01:32.563, True, 1.658, 0.133059
2023/06/26 07:01:33.067, True, 1.990, 0.131609
2023/06/26 07:01:33.563, True, 1.685, 0.135042
2023/06/26 07:01:34.067, True, 1.990, 0.137102
2023/06/26 07:01:34.571, True, 1.989, 0.135882
2023/06/26 07:01:35.067, True, 1.685, 0.137407
2023/06/26 07:01:35.571, True, 1.990, 0.137179
2023/06/26 07:01:36.074, True, 1.990, 0.137255
2023/06/26 07:01:36.571, True, 2.022, 0.135119
2023/06/26 07:01:37.075, True, 1.990, 0.135424
2023/06/26 07:01:37.579, True, 1.990, 0.135653
2023/06/26 07:01:38.075, True, 2.022, 0.133974
2023/06/26 07:01:38.578, True, 1.990, 0.137560
2023/06/26 07:01:39.082, True, 1.990, 0.133059
2023/06/26 07:01:39.579, True, 2.024, 0.135119
2023/06/26 07:01:40.082, True, 1.988, 0.133669
2023/06/26 07:01:40.586, True, 1.990, 0.134356
2023/06/26 07:01:41.082, True, 2.022, 0.134508
2023/06/26 07:01:41.586, True, 1.990, 0.136568
2023/06/26 07:01:42.091, True, 1.993, 0.135576
2023/06/26 07:01:42.595, True, 1.986, 0.135271
2023/06/26 07:01:43.090, True, 2.025, 0.133898
2023/06/26 07:01:43.595, True, 1.990, 0.136263
2023/06/26 07:01:44.099, True, 1.990, 0.136492
2023/06/26 07:01:44.594, True, 2.018, 0.135271
2023/06/26 07:01:45.098, True, 1.994, 0.134813
2023/06/26 07:01:45.603, True, 1.656, 0.135958
2023/06/26 07:01:46.099, True, 2.021, 0.136721
2023/06/26 07:01:46.603, True, 1.990, 0.136950
2023/06/26 07:01:47.107, True, 1.992, 0.134432
2023/06/26 07:01:47.603, True, 2.019, 0.135042
2023/06/26 07:01:48.107, True, 1.658, 0.134356
2023/06/26 07:01:48.603, True, 2.022, 0.134508
2023/06/26 07:01:49.107, True, 1.991, 0.135729
2023/06/26 07:01:49.611, True, 1.657, 0.133593
2023/06/26 07:01:50.107, True, 2.021, 0.135729
2023/06/26 07:01:50.611, True, 1.658, 0.134127
2023/06/26 07:01:51.115, True, 1.992, 0.134966
2023/06/26 07:01:51.611, True, 1.682, 0.135729
2023/06/26 07:01:52.115, True, 1.991, 0.132982
2023/06/26 07:01:52.619, True, 1.657, 0.133059
2023/06/26 07:01:53.115, True, 2.023, 0.134432
2023/06/26 07:01:53.619, True, 1.657, 0.134813
2023/06/26 07:01:54.115, True, 2.022, 0.133822
2023/06/26 07:01:54.619, True, 1.991, 0.133211
2023/06/26 07:01:55.123, True, 1.988, 0.135805
2023/06/26 07:01:55.619, True, 1.684, 0.134051
2023/06/26 07:01:56.123, True, 1.990, 0.135729
2023/06/26 07:01:56.626, True, 1.992, 0.134432
2023/06/26 07:01:57.130, True, 1.987, 0.133974
2023/06/26 07:01:57.627, True, 2.022, 0.135042
2023/06/26 07:01:58.131, True, 1.989, 0.131838
2023/06/26 07:01:58.635, True, 1.658, 0.133288
2023/06/26 07:01:59.131, True, 2.024, 0.133822
2023/06/26 07:01:59.634, True, 1.987, 0.133440
2023/06/26 07:02:00.139, True, 1.658, 0.133593
2023/06/26 07:02:00.635, True, 2.023, 0.129625
2023/06/26 07:02:01.139, True, 1.991, 0.133211
2023/06/26 07:02:01.643, True, 1.987, 0.133669
2023/06/26 07:02:02.139, True, 2.022, 0.135576
2023/06/26 07:02:02.643, True, 1.990, 0.132601
2023/06/26 07:02:03.147, True, 1.990, 0.135195
2023/06/26 07:02:03.643, True, 1.685, 0.134051
2023/06/26 07:02:04.147, True, 1.990, 0.135271
2023/06/26 07:02:04.643, True, 2.022, 0.134279
2023/06/26 07:02:05.147, True, 1.990, 0.136568
2023/06/26 07:02:05.651, True, 1.659, 0.133669
2023/06/26 07:02:06.147, True, 2.021, 0.133974
2023/06/26 07:02:06.651, True, 1.990, 0.130999
2023/06/26 07:02:07.155, True, 1.991, 0.134432
2023/06/26 07:02:07.651, True, 2.020, 0.134966
2023/06/26 07:02:08.155, True, 1.658, 0.132753
2023/06/26 07:02:08.659, True, 1.989, 0.132906
2023/06/26 07:02:09.155, True, 2.022, 0.134279
2023/06/26 07:02:09.659, True, 1.990, 0.133135
2023/06/26 07:02:10.163, True, 1.991, 0.134432
2023/06/26 07:02:10.659, True, 2.020, 0.133745
2023/06/26 07:02:11.163, True, 1.990, 0.130922
2023/06/26 07:02:11.667, True, 1.989, 0.134127
2023/06/26 07:02:12.163, True, 1.685, 0.136110
2023/06/26 07:02:12.667, True, 1.991, 0.132982
2023/06/26 07:02:13.170, True, 1.988, 0.133745
2023/06/26 07:02:13.667, True, 2.022, 0.133440
2023/06/26 07:02:14.171, True, 1.990, 0.134356
2023/06/26 07:02:14.675, True, 1.992, 0.134356
2023/06/26 07:02:15.171, True, 2.019, 0.133593
2023/06/26 07:02:15.675, True, 1.990, 0.133364
2023/06/26 07:02:16.179, True, 1.990, 0.133440
2023/06/26 07:02:16.675, True, 2.023, 0.137179
2023/06/26 07:02:17.179, True, 1.988, 0.133440
2023/06/26 07:02:17.683, True, 1.990, 0.135348
2023/06/26 07:02:18.179, True, 2.022, 0.132372
2023/06/26 07:02:18.683, True, 1.989, 0.132601
2023/06/26 07:02:19.187, True, 1.990, 0.131685
2023/06/26 07:02:19.683, True, 2.022, 0.135271
2023/06/26 07:02:20.187, True, 1.990, 0.133974
2023/06/26 07:02:20.683, True, 2.022, 0.132372
2023/06/26 07:02:21.187, True, 1.990, 0.131838
2023/06/26 07:02:21.691, True, 1.990, 0.132753
2023/06/26 07:02:22.187, True, 1.685, 0.132830
2023/06/26 07:02:22.691, True, 1.990, 0.133593
2023/06/26 07:02:23.195, True, 1.990, 0.132067
2023/06/26 07:02:23.690, True, 2.022, 0.133364
2023/06/26 07:02:24.195, True, 1.992, 0.133898
2023/06/26 07:02:24.699, True, 1.989, 0.134203
2023/06/26 07:02:25.195, True, 2.020, 0.131075
2023/06/26 07:02:25.699, True, 1.990, 0.131838
2023/06/26 07:02:26.202, True, 1.990, 0.132296
2023/06/26 07:02:26.699, True, 2.021, 0.133898
2023/06/26 07:02:27.203, True, 1.989, 0.133745
2023/06/26 07:02:27.707, True, 1.990, 0.133059
2023/06/26 07:02:28.203, True, 2.022, 0.131914
2023/06/26 07:02:28.707, True, 1.658, 0.134279
2023/06/26 07:02:29.211, True, 1.990, 0.131914
2023/06/26 07:02:29.707, True, 2.022, 0.133516
2023/06/26 07:02:30.211, True, 1.990, 0.132067
2023/06/26 07:02:30.715, True, 1.658, 0.132753
2023/06/26 07:02:31.211, True, 2.022, 0.131533
2023/06/26 07:02:31.715, True, 1.990, 0.132143
2023/06/26 07:02:32.219, True, 1.990, 0.134432
2023/06/26 07:02:32.714, True, 1.685, 0.132525
2023/06/26 07:02:33.218, True, 1.990, 0.134279
2023/06/26 07:02:33.723, True, 1.990, 0.130846
2023/06/26 07:02:34.219, True, 1.685, 0.134203
2023/06/26 07:02:34.723, True, 1.990, 0.131380
2023/06/26 07:02:35.227, True, 1.990, 0.130770
2023/06/26 07:02:35.723, True, 2.022, 0.132219
2023/06/26 07:02:36.227, True, 1.658, 0.135729
2023/06/26 07:02:36.731, True, 1.990, 0.134432
2023/06/26 07:02:37.226, True, 2.021, 0.131914
2023/06/26 07:02:37.731, True, 1.990, 0.132067
2023/06/26 07:02:38.235, True, 1.990, 0.130159
2023/06/26 07:02:38.731, True, 2.022, 0.133440
2023/06/26 07:02:39.235, True, 1.658, 0.131151
2023/06/26 07:02:39.738, True, 1.989, 0.131228
2023/06/26 07:02:40.235, True, 2.022, 0.130922
2023/06/26 07:02:40.739, True, 1.989, 0.132982
2023/06/26 07:02:41.243, True, 2.322, 0.131762
2023/06/26 07:02:41.739, True, 2.021, 0.131151
2023/06/26 07:02:42.243, True, 1.990, 0.131533
2023/06/26 07:02:42.747, True, 1.990, 0.131456
2023/06/26 07:02:43.242, True, 2.022, 0.131609
2023/06/26 07:02:43.747, True, 1.989, 0.130541
2023/06/26 07:02:44.251, True, 1.990, 0.133364
2023/06/26 07:02:44.747, True, 2.022, 0.132753
2023/06/26 07:02:45.251, True, 1.990, 0.131685
2023/06/26 07:02:45.755, True, 1.990, 0.131609
2023/06/26 07:02:46.259, True, 1.992, 0.131151
2023/06/26 07:02:46.755, True, 2.020, 0.130617
2023/06/26 07:02:47.259, True, 1.990, 0.131609
2023/06/26 07:02:47.763, True, 1.990, 0.131380
2023/06/26 07:02:48.259, True, 2.022, 0.130846
2023/06/26 07:02:48.763, True, 1.658, 0.131228
2023/06/26 07:02:49.267, True, 1.990, 0.132372
2023/06/26 07:02:49.763, True, 1.685, 0.131304
2023/06/26 07:02:50.267, True, 1.989, 0.130617
2023/06/26 07:02:50.770, True, 1.990, 0.132296
2023/06/26 07:02:51.267, True, 2.026, 0.130846
2023/06/26 07:02:51.771, True, 1.986, 0.131609
2023/06/26 07:02:52.275, True, 1.990, 0.129015
2023/06/26 07:02:52.771, True, 1.685, 0.132296
2023/06/26 07:02:53.274, True, 1.991, 0.131914
2023/06/26 07:02:53.779, True, 1.990, 0.131075
2023/06/26 07:02:54.283, True, 1.657, 0.131533
2023/06/26 07:02:54.779, True, 2.021, 0.132219
2023/06/26 07:02:55.282, True, 1.991, 0.133288
2023/06/26 07:02:55.787, True, 1.989, 0.131685
2023/06/26 07:02:56.282, True, 2.022, 0.130846
2023/06/26 07:02:56.787, True, 1.991, 0.131685
2023/06/26 07:02:57.290, True, 1.989, 0.131151
2023/06/26 07:02:57.795, True, 1.991, 0.131914
2023/06/26 07:02:58.291, True, 2.022, 0.131533
2023/06/26 07:02:58.794, True, 1.988, 0.130617
2023/06/26 07:02:59.290, True, 2.022, 0.131151
2023/06/26 07:02:59.794, True, 1.991, 0.130541
2023/06/26 07:03:00.298, True, 2.319, 0.131685
2023/06/26 07:03:00.794, True, 1.685, 0.132982
2023/06/26 07:03:01.299, True, 1.991, 0.130617
2023/06/26 07:03:01.802, True, 1.989, 0.131991
2023/06/26 07:03:02.298, True, 2.021, 0.130770
2023/06/26 07:03:02.803, True, 2.324, 0.129168
2023/06/26 07:03:03.306, True, 1.988, 0.130083
2023/06/26 07:03:03.802, True, 1.684, 0.130236
2023/06/26 07:03:04.306, True, 1.992, 0.131380
2023/06/26 07:03:04.810, True, 1.987, 0.130312
2023/06/26 07:03:05.307, True, 2.023, 0.129931
2023/06/26 07:03:05.811, True, 1.989, 0.134051
2023/06/26 07:03:06.314, True, 1.990, 0.129854
2023/06/26 07:03:06.810, True, 1.687, 0.130236
2023/06/26 07:03:07.315, True, 1.988, 0.130541
2023/06/26 07:03:07.818, True, 1.990, 0.131762
2023/06/26 07:03:08.315, True, 2.022, 0.129015
2023/06/26 07:03:08.819, True, 1.989, 0.133898
2023/06/26 07:03:09.322, True, 1.990, 0.131380
2023/06/26 07:03:09.818, True, 1.685, 0.131762
2023/06/26 07:03:10.323, True, 1.990, 0.131609
2023/06/26 07:03:10.827, True, 2.322, 0.131914
2023/06/26 07:03:11.323, True, 1.684, 0.130770
2023/06/26 07:03:11.826, True, 1.990, 0.130999
2023/06/26 07:03:12.322, True, 2.022, 0.131533
2023/06/26 07:03:12.827, True, 1.990, 0.130617
2023/06/26 07:03:13.330, True, 1.991, 0.132067
2023/06/26 07:03:13.835, True, 1.989, 0.130312
2023/06/26 07:03:14.331, True, 2.021, 0.131914
2023/06/26 07:03:14.835, True, 1.659, 0.128939
2023/06/26 07:03:15.330, True, 2.021, 0.131075
2023/06/26 07:03:15.834, True, 1.990, 0.130159
2023/06/26 07:03:16.339, True, 1.991, 0.130388
2023/06/26 07:03:16.834, True, 1.684, 0.132830
2023/06/26 07:03:17.338, True, 1.989, 0.131304
2023/06/26 07:03:17.842, True, 1.992, 0.130999
2023/06/26 07:03:18.339, True, 1.686, 0.130999
2023/06/26 07:03:18.843, True, 1.987, 0.128405
2023/06/26 07:03:19.346, True, 1.991, 0.131533
2023/06/26 07:03:19.843, True, 1.683, 0.129549
2023/06/26 07:03:20.347, True, 1.991, 0.130999
2023/06/26 07:03:20.851, True, 1.988, 0.130083
2023/06/26 07:03:21.347, True, 2.023, 0.128939
2023/06/26 07:03:21.851, True, 1.659, 0.131609
2023/06/26 07:03:22.354, True, 1.988, 0.131151
2023/06/26 07:03:22.851, True, 2.023, 0.131533
2023/06/26 07:03:23.355, True, 1.656, 0.129397
2023/06/26 07:03:23.858, True, 1.993, 0.130617
2023/06/26 07:03:24.363, True, 1.990, 0.129702
2023/06/26 07:03:24.859, True, 2.018, 0.131228
2023/06/26 07:03:25.363, True, 1.993, 0.131533
2023/06/26 07:03:25.867, True, 1.990, 0.129244
2023/06/26 07:03:26.363, True, 2.018, 0.131151
2023/06/26 07:03:26.867, True, 1.990, 0.128786
2023/06/26 07:03:27.371, True, 1.990, 0.129702
2023/06/26 07:03:27.867, True, 2.022, 0.130541
2023/06/26 07:03:28.371, True, 1.990, 0.131075
2023/06/26 07:03:28.875, True, 1.990, 0.128786
2023/06/26 07:03:29.370, True, 2.022, 0.128786
2023/06/26 07:03:29.875, True, 1.989, 0.131533
2023/06/26 07:03:30.379, True, 2.321, 0.129778
2023/06/26 07:03:30.875, True, 1.685, 0.129778
2023/06/26 07:03:31.378, True, 1.990, 0.129320
2023/06/26 07:03:31.882, True, 1.989, 0.127871
2023/06/26 07:03:32.387, True, 1.990, 0.128710
2023/06/26 07:03:32.883, True, 2.022, 0.131151
2023/06/26 07:03:33.387, True, 1.658, 0.131685
2023/06/26 07:03:33.891, True, 1.989, 0.131304
2023/06/26 07:03:34.387, True, 2.021, 0.130159
2023/06/26 07:03:34.891, True, 1.658, 0.130999
2023/06/26 07:03:35.395, True, 1.990, 0.129320
2023/06/26 07:03:35.890, True, 2.022, 0.131075
2023/06/26 07:03:36.395, True, 1.658, 0.132372
2023/06/26 07:03:36.899, True, 2.321, 0.130770
2023/06/26 07:03:37.395, True, 1.685, 0.126802
2023/06/26 07:03:37.899, True, 2.321, 0.130159
2023/06/26 07:03:38.403, True, 1.990, 0.128786
2023/06/26 07:03:38.899, True, 2.022, 0.129244
2023/06/26 07:03:39.403, True, 1.990, 0.130922
2023/06/26 07:03:39.907, True, 1.990, 0.129549
2023/06/26 07:03:40.402, True, 1.685, 0.129778
2023/06/26 07:03:40.906, True, 1.990, 0.128786
2023/06/26 07:03:41.411, True, 1.990, 0.130236
2023/06/26 07:03:41.907, True, 2.021, 0.128557
2023/06/26 07:03:42.411, True, 1.990, 0.131991
2023/06/26 07:03:42.915, True, 1.990, 0.130388
2023/06/26 07:03:43.411, True, 2.024, 0.131533
2023/06/26 07:03:43.915, True, 2.318, 0.129397
2023/06/26 07:03:44.419, True, 1.990, 0.131685
2023/06/26 07:03:44.914, True, 2.022, 0.129854
2023/06/26 07:03:45.418, True, 1.990, 0.128786
2023/06/26 07:03:45.922, True, 1.990, 0.128710
2023/06/26 07:03:46.419, True, 2.022, 0.130312
2023/06/26 07:03:46.923, True, 1.990, 0.129625
2023/06/26 07:03:47.427, True, 1.658, 0.130770
2023/06/26 07:03:47.923, True, 2.021, 0.129397
2023/06/26 07:03:48.427, True, 1.990, 0.129931
2023/06/26 07:03:48.931, True, 1.658, 0.129778
2023/06/26 07:03:49.427, True, 2.022, 0.132753
2023/06/26 07:03:49.931, True, 1.658, 0.128099
2023/06/26 07:03:50.427, True, 2.021, 0.127871
2023/06/26 07:03:50.931, True, 1.990, 0.130541
2023/06/26 07:03:51.435, True, 1.990, 0.129168
2023/06/26 07:03:51.931, True, 2.022, 0.130465
2023/06/26 07:03:52.435, True, 1.990, 0.130159
2023/06/26 07:03:52.939, True, 1.990, 0.129320
2023/06/26 07:03:53.435, True, 2.022, 0.130083
2023/06/26 07:03:53.939, True, 1.658, 0.128710
2023/06/26 07:03:54.443, True, 1.990, 0.129625
2023/06/26 07:03:54.939, True, 1.684, 0.128939
2023/06/26 07:03:55.443, True, 1.994, 0.129320
2023/06/26 07:03:55.947, True, 1.986, 0.128405
2023/06/26 07:03:56.443, True, 1.685, 0.130083
2023/06/26 07:03:56.947, True, 1.990, 0.130541
2023/06/26 07:03:57.451, True, 1.658, 0.128405
2023/06/26 07:03:57.947, True, 2.022, 0.130465
2023/06/26 07:03:58.451, True, 1.658, 0.129244
2023/06/26 07:03:58.955, True, 1.658, 0.128634
2023/06/26 07:03:59.450, True, 1.685, 0.127718
2023/06/26 07:03:59.955, True, 1.990, 0.128328
2023/06/26 07:04:00.459, True, 1.658, 0.128557
2023/06/26 07:04:00.955, True, 2.022, 0.130617
2023/06/26 07:04:01.459, True, 1.990, 0.129473
2023/06/26 07:04:01.963, True, 1.658, 0.128557
2023/06/26 07:04:02.458, True, 2.022, 0.130922
2023/06/26 07:04:02.963, True, 1.990, 0.129397
2023/06/26 07:04:03.467, True, 1.658, 0.129931
2023/06/26 07:04:03.963, True, 2.022, 0.129015
2023/06/26 07:04:04.467, True, 1.990, 0.127031
2023/06/26 07:04:04.971, True, 1.989, 0.129854
2023/06/26 07:04:05.467, True, 1.686, 0.130007
2023/06/26 07:04:05.971, True, 1.988, 0.128176
2023/06/26 07:04:06.475, True, 1.990, 0.128862
2023/06/26 07:04:06.971, True, 1.685, 0.129168
2023/06/26 07:04:07.475, True, 1.993, 0.130007
2023/06/26 07:04:07.979, True, 1.986, 0.130007
2023/06/26 07:04:08.475, True, 2.024, 0.128710
2023/06/26 07:04:08.979, True, 1.987, 0.129320
2023/06/26 07:04:09.483, True, 1.990, 0.129854
2023/06/26 07:04:09.979, True, 1.685, 0.127565
2023/06/26 07:04:10.483, True, 1.990, 0.127794
2023/06/26 07:04:10.987, True, 1.990, 0.128786